Location: �quirre
(50.4736°N, 2.2351°E)
Time: 16:50:48
(UTC+00:00)

Lacrosse 4 Rocket - Pass Details

Date: 07 August 2020
Orbit: 544 x 615 km, 68.0° (Epoch: 25 September)

Event Time Altitude Azimuth Distance (km) Brightness Sun altitude
Exits shadow 01:49:10 14° 276° (W) 1,629 3.5 -18.8°
Maximum altitude 01:51:40 23° 321° (NW) 1,243 3.3 -18.6°
Drops below altitude 10° 01:55:02 10° 15° (NNE) 1,869 5.2 -18.3°
Sets 01:57:37 0° 30° (NNE) 2,756 6.6 -18.1°
